Time,TemperatureF,DewpointF,PressureIn,WindDirection,WindDirectionDegrees,WindSpeedMPH,WindSpeedGustMPH,Humidity,HourlyPrecipIn,Conditions,Clouds,dailyrainin,SolarRadiationWatts/m^2,SoftwareType,DateUTC
2014-01-24 03:50:00,19.0,2.0,-100.00,South,169,6.0,8.0,46,0.00,,,-99.99,0.000000,,2014-01-24 10:50:00,
2014-01-24 04:21:00,19.0,2.0,-100.00,South,169,6.0,8.0,46,0.00,,,-99.99,0.000000,,2014-01-24 11:21:00,
2014-01-24 04:33:00,19.0,2.0,-100.00,South,169,6.0,8.0,46,0.00,,,-99.99,0.000000,,2014-01-24 11:33:00,
2014-01-24 04:42:00,19.0,2.0,-100.00,South,169,6.0,8.0,46,0.00,,,-99.99,0.000000,,2014-01-24 11:42:00,
2014-01-24 08:50:00,15.0,4.0,-100.00,South,171,5.0,5.0,63,0.00,,,-99.99,25.000000,,2014-01-24 15:50:00,
2014-01-24 08:53:00,14.0,5.0,-100.00,South,169,5.0,6.0,67,0.00,,,-99.99,18.000000,,2014-01-24 15:53:00,
2014-01-24 09:23:00,15.0,4.0,-100.00,South,171,5.0,5.0,63,0.00,,,-99.99,25.000000,,2014-01-24 16:23:00,
2014-01-24 09:33:00,15.0,4.0,-100.00,South,171,5.0,5.0,63,0.00,,,-99.99,25.000000,,2014-01-24 16:33:00,
2014-01-24 09:42:00,15.0,4.0,-100.00,South,171,5.0,5.0,63,0.00,,,-99.99,25.000000,,2014-01-24 16:42:00,
2014-01-24 10:52:00,25.0,12.0,-100.00,ESE,103,4.0,5.0,56,0.00,,,-99.99,413.000000,,2014-01-24 17:52:00,
2014-01-24 13:50:00,33.0,14.0,-100.00,ESE,110,2.0,3.0,45,0.00,,,-99.99,494.000000,,2014-01-24 20:50:00,
2014-01-24 14:22:00,33.0,14.0,-100.00,ESE,110,2.0,3.0,45,0.00,,,-99.99,494.000000,,2014-01-24 21:22:00,
2014-01-24 14:33:00,33.0,14.0,-100.00,ESE,110,2.0,3.0,45,0.00,,,-99.99,494.000000,,2014-01-24 21:33:00,
2014-01-24 14:43:00,33.0,14.0,-100.00,ESE,110,2.0,3.0,45,0.00,,,-99.99,494.000000,,2014-01-24 21:43:00,
2014-01-24 18:50:00,23.0,11.0,-100.00,SSE,166,6.0,7.0,60,0.00,,,-99.99,0.000000,,2014-01-25 01:50:00,
2014-01-24 19:21:00,23.0,11.0,-100.00,SSE,166,6.0,7.0,60,0.00,,,-99.99,0.000000,,2014-01-25 02:21:00,
2014-01-24 19:31:00,23.0,11.0,-100.00,SSE,166,6.0,7.0,60,0.00,,,-99.99,0.000000,,2014-01-25 02:31:00,
2014-01-24 19:42:00,23.0,11.0,-100.00,SSE,166,6.0,7.0,60,0.00,,,-99.99,0.000000,,2014-01-25 02:42:00,
2014-01-24 20:10:00,21.0,9.0,-100.00,SSE,163,6.0,7.0,59,0.00,,,-99.99,0.000000,,2014-01-25 03:10:00,
2014-01-24 20:43:00,21.0,9.0,-100.00,SSE,163,6.0,7.0,59,0.00,,,-99.99,0.000000,,2014-01-25 03:43:00,
2014-01-24 20:53:00,21.0,9.0,-100.00,SSE,163,6.0,7.0,59,0.00,,,-99.99,0.000000,,2014-01-25 03:53:00,
2014-01-24 21:03:00,21.0,9.0,-100.00,SSE,163,6.0,7.0,59,0.00,,,-99.99,0.000000,,2014-01-25 04:03:00,